TimeHST,TemperatureF,Dew PointF,Humidity,Sea Level PressureIn,VisibilityMPH,Wind Direction,Wind SpeedMPH,Gust SpeedMPH,PrecipitationIn,Events,Conditions,WindDirDegrees,DateUTC
12:53 AM,-9999,-9999,N/A,30.05,-9999.0,North,-9999.0,-,N/A,,Unknown,0,2013-04-09 10:53:00
1:53 AM,-9999,-9999,N/A,30.04,-9999.0,North,-9999.0,-,0.00,,Unknown,0,2013-04-09 11:53:00
2:53 AM,-9999,-9999,N/A,30.01,-9999.0,North,-9999.0,-,N/A,,Unknown,0,2013-04-09 12:53:00
3:53 AM,-9999,-9999,N/A,29.99,-9999.0,North,-9999.0,-,N/A,,Unknown,0,2013-04-09 13:53:00
4:53 AM,-9999,-9999,N/A,29.99,-9999.0,North,-9999.0,-,N/A,,Unknown,0,2013-04-09 14:53:00
5:53 AM,-9999,-9999,N/A,30.00,-9999.0,North,-9999.0,-,N/A,,Unknown,0,2013-04-09 15:53:00
5:56 AM,71.6,66.2,83,29.99,10.0,ESE,5.8,-,N/A,,Scattered Clouds,120,2013-04-09 15:56:00
6:53 AM,71.6,66.2,83,30.00,10.0,ESE,5.8,-,N/A,,Clear,120,2013-04-09 16:53:00
7:53 AM,-9999,-9999,N/A,30.02,-9999.0,North,-9999.0,-,N/A,,Unknown,0,2013-04-09 17:53:00
7:55 AM,75.2,68.0,78,30.01,10.0,SSE,6.9,-,N/A,,Clear,160,2013-04-09 17:55:00
8:53 AM,75.2,68.0,78,30.02,10.0,SSE,6.9,-,N/A,,Clear,160,2013-04-09 18:53:00
9:53 AM,78.8,66.2,65,30.03,10.0,SSW,11.5,-,N/A,,Clear,210,2013-04-09 19:53:00
10:53 AM,80.6,66.2,61,30.04,10.0,WSW,10.4,-,N/A,,Clear,240,2013-04-09 20:53:00
11:53 AM,80.6,68.0,65,30.01,10.0,West,11.5,-,N/A,,Partly Cloudy,260,2013-04-09 21:53:00
12:53 PM,-9999,-9999,N/A,30.00,-9999.0,North,-9999.0,-,N/A,,Unknown,0,2013-04-09 22:53:00
12:57 PM,80.6,66.2,61,29.98,10.0,West,10.4,-,N/A,,Partly Cloudy,270,2013-04-09 22:57:00
1:53 PM,80.6,66.2,61,29.97,10.0,West,10.4,-,N/A,,Partly Cloudy,270,2013-04-09 23:53:00
2:53 PM,82.4,66.2,58,29.95,10.0,WSW,9.2,-,N/A,,Partly Cloudy,250,2013-04-10 00:53:00
3:53 PM,-9999,-9999,N/A,29.96,-9999.0,North,-9999.0,-,N/A,,Unknown,0,2013-04-10 01:53:00
4:53 PM,-9999,-9999,N/A,29.97,10.0,North,-9999.0,-,N/A,,Clear,0,2013-04-10 02:53:00
5:53 PM,80.6,66.2,61,29.98,10.0,South,12.7,-,N/A,,Clear,190,2013-04-10 03:53:00
6:53 PM,-9999,-9999,N/A,30.01,-9999.0,North,-9999.0,-,N/A,,Unknown,0,2013-04-10 04:53:00
7:53 PM,-9999,-9999,N/A,30.03,-9999.0,North,-9999.0,-,N/A,,Unknown,0,2013-04-10 05:53:00
8:53 PM,-9999,-9999,N/A,30.05,-9999.0,North,-9999.0,-,N/A,,Unknown,0,2013-04-10 06:53:00
9:53 PM,-9999,-9999,N/A,30.07,-9999.0,North,-9999.0,-,N/A,,Unknown,0,2013-04-10 07:53:00
10:53 PM,-9999,-9999,N/A,30.07,-9999.0,North,-9999.0,-,N/A,,Unknown,0,2013-04-10 08:53:00
11:53 PM,-9999,-9999,N/A,30.07,-9999.0,North,-9999.0,-,N/A,,Unknown,0,2013-04-10 09:53:00